Regional Weather Roundup
Issued by NWS Northern Indiana

Home | Current Version | Previous Version | Graphics & Text | Print | Product List | Glossary On
Versions: 1 2 3 4 5 6 7 8 9 10 11 12 13 14 15 16 17 18 19 20 21 22 23 24 25 26 27 28 29 30 31 32 33 34 35 36 37 38 39 40 41 42 43 44 45 46 47 48 49 50
083
ASUS43 KIWX 172300
RWRIWX

KIWX WEATHER ROUNDUP
NATIONAL WEATHER SERVICE NORTHERN INDIANA
600 PM EST FRI NOV 17 2017

NOTE: "FAIR" INDICATES FEW OR NO CLOUDS BELOW 12,000 FEET WITH NO
SIGNIFICANT WEATHER AND/OR OBSTRUCTIONS TO VISIBILITY.

* THESE STATIONS ARE NOT UNDER NWS QUALITY CONTROL. THEY ALSO MAY NOT
  REPORT WEATHER SUCH AS PRECIPITATION OR FOG.

INZ001>027-180000-
NORTHERN INDIANA

CITY           SKY/WX    TMP DP  RH WIND       PRES   REMARKS
GARY*          LGT RAIN  46  32  57 SE17G30   29.75F
LAPORTE*       CLOUDY    44  34  67 S13G21    29.81F
KNOX*          CLOUDY    45  34  65 S17       29.81F
SOUTH BEND     CLOUDY    43  36  76 SE16      29.82F
ELKHART*       LGT RAIN  45  34  65 SE12G17   29.83
GOSHEN         CLOUDY    44  32  62 S13G22    29.86F
MONTICELLO*    CLOUDY    45  32  60 SE9       29.81F
WARSAW*        CLOUDY    43  34  70 S6        29.86F
AUBURN*        CLOUDY    43  34  70 SE3       29.91F
FORT WAYNE     CLOUDY    45  35  68 SE12      29.91F
PERU/GRISSOM   CLOUDY    46  35  66 S14       29.86F

$$
INZ028>050-180000-
CENTRAL INDIANA

CITY           SKY/WX    TMP DP  RH WIND       PRES   REMARKS
LAFAYETTE      CLOUDY    47  33  58 S13G21    29.82F
KOKOMO*        CLOUDY    46  34  62 SE14      29.88F
MUNCIE*        CLOUDY    47  32  56 S8        29.91F
INDIANAPOLIS   CLOUDY    46  32  58 SE12      29.89F

$$
MIZ043>046-050>051-056>058-064>065-071>073-077>080-180000-
SOUTHWEST LOWER MICHIGAN

CITY           SKY/WX    TMP DP  RH WIND       PRES   REMARKS
BATTLE CREEK   CLOUDY    42  34  73 SE13      29.84F
BENTON HARBOR  CLOUDY    43  36  76 SE12G20   29.78F
COLDWATER*     CLOUDY    43  33  67 SE12G18   29.87F
HILLSDALE*     CLOUDY    41  32  70 SE8G17    29.89F
HOLLAND        RAIN      42  35  76 S12       29.82F
GRAND RAPIDS   CLOUDY    42  34  73 SE13      29.83F
KALAMAZOO      CLOUDY    43  32  65 S10G18    29.84F
THREE RIVERS*  CLOUDY    44  34  67 S10       29.85F

$$
OHZ001>008-015>018-024>025-180000-
NORTHWEST OHIO

CITY           SKY/WX    TMP DP  RH WIND       PRES   REMARKS
DEFIANCE       CLOUDY    45  32  60 S9        29.93F
FINDLAY        CLOUDY    44  32  62 S12       29.96F
TOLEDO EXPRESS CLOUDY    45  35  68 S5        29.95F
TOLEDO METCALF CLOUDY    44  34  67 S9        29.97F
LIMA           CLOUDY    43  34  70 S13       29.95F

$$
AND FOR LAKE MICHIGAN COASTAL AND OPEN LAKE BUOY OBSERVATIONS

STATION/POSITION TEMP    WIND        PRES    VSBY  WAVE
                 AIR SEA DIR/SP/G                  HT/PER
                 (F)     (DEG/KT/KT) (MB)    (MI)  (FT/S)
MICHIGAN CITY     44     140/ 17/ 22   N/A
BURNS HARBOR      45     160/ 12/ 20 1008.1F
SAINT JOSEPH      45     160/  5/ 13 1010.5
SOUTH LAKE BUOY   45 50  170/ 23/ 31 1008.8          6/ 6

$$
&&




USA.gov is the U.S. government's official web portal to all federal, state and local government web resources and services.